Location: Rounton
(54.4000°N, 1.3500°W)
Time: 00:23:08
(UTC+01:00)

Vanguard 1 - Pass Details

Date: 01 March 2024
Orbit: 653 x 3825 km, 34.2° (Epoch: 22 April)

Event Time Altitude Azimuth Distance (km) Brightness Sun altitude
Rises 21:01:43 0° 249° (WSW) 5,493 14.4 -28.7°
Reaches altitude 10° 21:05:09 10° 241° (WSW) 4,873 13.9 -29.1°
Maximum altitude 21:18:23 38° 181° (S) 4,212 12.9 -30.7°
Enters shadow 21:22:35 35° 159° (SSE) 4,599 12.9 -31.2°
Drops below altitude 10° 21:37:24 10° 124° (SE) 6,903 - -32.9°
Sets 21:43:32 0° 118° (ESE) 7,958 - -33.6°
